| time (UTC) | temp F | wind direction | speed knots | gust knots | rain 1hr in | rain 24hr in | rain mn in | humidity % | barometer mb |
| 20260906161405 | 78 | 108 | 1.7 | 7.8 | 0.00 | 0.00 | 0.00 | 73 | 1020.9 |
| 20260906160823 | 78 | 113 | 1.7 | 7.8 | 0.00 | 0.00 | 0.00 | 73 | 1020.9 |
| 20260906155909 | 78 | 83 | 0.9 | 5.2 | 0.00 | 0.00 | 0.00 | 74 | 1020.9 |
| 20260906155321 | 78 | 120 | 1.7 | 5.2 | 0.00 | 0.00 | 0.00 | 72 | 1020.8 |
| 20260906154913 | 78 | 111 | 0.9 | 3.5 | 0.00 | 0.00 | 0.00 | 74 | 1020.9 |
| 20260906154346 | 78 | 93 | 0.9 | 3.5 | 0.00 | 0.00 | 0.00 | 75 | 1020.9 |
| 20260906153817 | 77 | 109 | 0.9 | 6.1 | 0.00 | 0.00 | 0.00 | 74 | 1021.0 |
| 20260906151902 | 76 | 75 | 0.9 | 5.2 | 0.00 | 0.00 | 0.00 | 78 | 1020.8 |
| 20260906151339 | 75 | 93 | 0.0 | 3.5 | 0.00 | 0.00 | 0.00 | 79 | 1020.9 |
| 20260906150818 | 75 | 74 | 0.9 | 2.6 | 0.00 | 0.00 | 0.00 | 80 | 1021.0 |
| 20260906145359 | 75 | 62 | 0.9 | 4.3 | 0.00 | 0.00 | 0.00 | 82 | 1020.7 |
| 20260906144839 | 74 | 77 | 0.9 | 3.5 | 0.00 | 0.00 | 0.00 | 83 | 1020.7 |
| 20260906144318 | 74 | 88 | 0.0 | 2.6 | 0.00 | 0.00 | 0.00 | 82 | 1020.6 |
| 20260906142902 | 74 | 92 | 0.0 | 3.5 | 0.00 | 0.00 | 0.00 | 82 | 1020.8 |
| 20260906142344 | 74 | 75 | 0.0 | 3.5 | 0.00 | 0.00 | 0.00 | 84 | 1020.9 |
| 20260906141820 | 73 | 75 | 0.0 | 3.5 | 0.00 | 0.00 | 0.00 | 86 | 1020.9 |
| 20260906141415 | 72 | 71 | 0.0 | 3.5 | 0.00 | 0.00 | 0.00 | 86 | 1021.0 |
| 20260906140859 | 72 | 77 | 0.0 | 2.6 | 0.00 | 0.00 | 0.00 | 86 | 1020.9 |
| 20260906140341 | 71 | 67 | 0.0 | 2.6 | 0.00 | 0.00 | 0.00 | 87 | 1020.9 |
| 20260906135820 | 70 | 68 | 0.0 | 2.6 | 0.00 | 0.00 | 0.00 | 89 | 1020.9 |
| 20260906134902 | 69 | 80 | 0.0 | 1.7 | 0.00 | 0.00 | 0.00 | 91 | 1021.1 |
| 20260906134341 | 68 | 81 | 0.0 | 1.7 | 0.00 | 0.00 | 0.00 | 93 | 1020.8 |
| 20260906131858 | 64 | 53 | 0.0 | 1.7 | 0.00 | 0.00 | 0.00 | 98 | 1020.7 |
| 20260906131336 | 64 | 56 | 0.0 | 1.7 | 0.00 | 0.00 | 0.00 | 98 | 1020.8 |
| 20260906130819 | 63 | 56 | 0.0 | 3.5 | 0.00 | 0.00 | 0.00 | 98 | 1020.7 |
| 20260906125402 | 62 | 46 | 0.0 | 1.7 | 0.00 | 0.00 | 0.00 | 99 | 1020.6 |
| 20260906124820 | 62 | 36 | 0.0 | 1.7 | 0.00 | 0.00 | 0.00 | 99 | 1020.6 |
| 20260906124416 | 62 | 35 | 0.9 | 2.6 | 0.00 | 0.00 | 0.00 | 99 | 1020.5 |
| 20260906123854 | 61 | 34 | 0.0 | 0.0 | 0.00 | 0.00 | 0.00 | 99 | 1020.5 |
| 20260906123338 | 61 | 34 | 0.0 | 0.0 | 0.00 | 0.00 | 0.00 | 98 | 1020.5 |
| 20260906122927 | 61 | 34 | 0.0 | 0.0 | 0.00 | 0.00 | 0.00 | 98 | 1020.4 |
| 20260906122346 | 61 | 34 | 0.0 | 0.0 | 0.00 | 0.00 | 0.00 | 98 | 1020.4 |
| 20260906121823 | 61 | 34 | 0.0 | 0.0 | 0.00 | 0.00 | 0.00 | 99 | 1020.4 |
| 20260906120410 | 60 | 34 | 0.0 | 1.7 | 0.00 | 0.00 | 0.00 | 98 | 1020.4 |
| 20260906115848 | 60 | 34 | 0.0 | 1.7 | 0.00 | 0.00 | 0.00 | 98 | 1020.3 |
| 20260906115324 | 60 | 34 | 0.0 | 1.7 | 0.00 | 0.00 | 0.00 | 98 | 1020.1 |
| 20260906114412 | 60 | 34 | 0.0 | 1.7 | 0.00 | 0.00 | 0.00 | 97 | 1020.0 |
| 20260906113903 | 60 | 34 | 0.0 | 1.7 | 0.00 | 0.00 | 0.00 | 97 | 1019.9 |
| 20260906113341 | 60 | 35 | 0.0 | 1.7 | 0.00 | 0.00 | 0.00 | 97 | 1019.7 |
| 20260906112817 | 60 | 35 | 0.0 | 1.7 | 0.00 | 0.00 | 0.00 | 97 | 1019.6 |
| 20260906111906 | 60 | 35 | 0.0 | 1.7 | 0.00 | 0.00 | 0.00 | 97 | 1019.5 |
| 20260906111330 | 60 | 34 | 0.0 | 0.9 | 0.00 | 0.00 | 0.00 | 97 | 1019.5 |
| 20260906110820 | 60 | 34 | 0.0 | 1.7 | 0.00 | 0.00 | 0.00 | 97 | 1019.4 |
| 20260906110413 | 60 | 34 | 0.0 | 1.7 | 0.00 | 0.00 | 0.00 | 97 | 1019.4 |
| 20260906105853 | 60 | 34 | 0.0 | 2.6 | 0.00 | 0.00 | 0.00 | 96 | 1019.5 |
| 20260906105331 | 60 | 34 | 0.0 | 2.6 | 0.00 | 0.00 | 0.00 | 96 | 1019.4 |
| 20260906104917 | 61 | 30 | 0.0 | 0.9 | 0.00 | 0.00 | 0.00 | 96 | 1019.4 |
| 20260906104327 | 61 | 30 | 0.0 | 0.9 | 0.00 | 0.00 | 0.00 | 96 | 1019.4 |
| 20260906103920 | 61 | 30 | 0.0 | 0.9 | 0.00 | 0.00 | 0.00 | 96 | 1019.4 |
| 20260906103338 | 61 | 30 | 0.0 | 0.9 | 0.00 | 0.00 | 0.00 | 96 | 1019.4 |
| 20260906102820 | 61 | 30 | 0.0 | 0.9 | 0.00 | 0.00 | 0.00 | 96 | 1019.4 |
| 20260906101400 | 61 | 30 | 0.0 | 1.7 | 0.00 | 0.00 | 0.00 | 95 | 1019.4 |
| 20260906100829 | 61 | 30 | 0.0 | 1.7 | 0.00 | 0.00 | 0.00 | 95 | 1019.5 |
| 20260906100317 | 62 | 30 | 0.0 | 0.0 | 0.00 | 0.00 | 0.00 | 95 | 1019.4 |
| 20260906095356 | 62 | 30 | 0.0 | 3.5 | 0.00 | 0.00 | 0.00 | 95 | 1019.3 |
| 20260906094818 | 62 | 28 | 0.9 | 3.5 | 0.00 | 0.00 | 0.00 | 95 | 1019.3 |
| 20260906093846 | 62 | 38 | 0.9 | 2.6 | 0.00 | 0.00 | 0.00 | 95 | 1019.4 |
| 20260906093426 | 62 | 61 | 0.0 | 1.7 | 0.00 | 0.00 | 0.00 | 95 | 1019.2 |
| 20260906092844 | 62 | 62 | 0.0 | 1.7 | 0.00 | 0.00 | 0.00 | 95 | 1019.1 |
| 20260906092323 | 62 | 63 | 0.0 | 2.6 | 0.00 | 0.00 | 0.00 | 95 | 1019.0 |
| 20260906085858 | 61 | 67 | 0.9 | 2.6 | 0.00 | 0.00 | 0.00 | 95 | 1019.2 |
| 20260906085339 | 61 | 67 | 0.0 | 0.0 | 0.00 | 0.00 | 0.00 | 95 | 1019.1 |
| 20260906084914 | 61 | 67 | 0.0 | 0.0 | 0.00 | 0.00 | 0.00 | 95 | 1019.1 |
| 20260906084352 | 61 | 67 | 0.0 | 0.0 | 0.00 | 0.00 | 0.00 | 95 | 1019.1 |
| 20260906083839 | 61 | 67 | 0.0 | 0.0 | 0.00 | 0.00 | 0.00 | 94 | 1019.1 |
| 20260906083319 | 61 | 67 | 0.0 | 0.0 | 0.00 | 0.00 | 0.00 | 94 | 1019.0 |
| 20260906082358 | 61 | 67 | 0.0 | 0.0 | 0.00 | 0.00 | 0.00 | 94 | 1018.9 |
| 20260906081836 | 61 | 67 | 0.0 | 0.0 | 0.00 | 0.00 | 0.00 | 94 | 1018.9 |
| 20260906081319 | 61 | 67 | 0.0 | 0.0 | 0.00 | 0.00 | 0.00 | 94 | 1018.8 |
| 20260906080402 | 61 | 67 | 0.0 | 0.0 | 0.00 | 0.00 | 0.00 | 94 | 1018.8 |
| 20260906075821 | 61 | 67 | 0.0 | 0.0 | 0.00 | 0.00 | 0.00 | 94 | 1018.8 |
| 20260906074907 | 61 | 67 | 0.0 | 0.0 | 0.00 | 0.00 | 0.00 | 94 | 1019.0 |
| 20260906074402 | 62 | 67 | 0.0 | 0.0 | 0.00 | 0.00 | 0.00 | 94 | 1019.0 |
| 20260906073843 | 62 | 67 | 0.0 | 0.0 | 0.00 | 0.00 | 0.00 | 94 | 1019.0 |
| 20260906072357 | 62 | 67 | 0.0 | 0.0 | 0.00 | 0.00 | 0.00 | 94 | 1019.0 |
| 20260906071816 | 62 | 67 | 0.0 | 0.0 | 0.00 | 0.00 | 0.00 | 93 | 1018.9 |
| 20260906070842 | 62 | 67 | 0.0 | 0.0 | 0.00 | 0.00 | 0.00 | 93 | 1018.9 |
| 20260906070406 | 62 | 67 | 0.0 | 0.0 | 0.00 | 0.00 | 0.00 | 93 | 1019.0 |
| 20260906065832 | 62 | 67 | 0.0 | 0.0 | 0.00 | 0.00 | 0.00 | 93 | 1019.0 |
| 20260906065346 | 62 | 67 | 0.0 | 0.0 | 0.00 | 0.00 | 0.00 | 93 | 1018.9 |
| 20260906064903 | 62 | 67 | 0.0 | 0.0 | 0.00 | 0.00 | 0.00 | 93 | 1018.9 |
| 20260906064317 | 62 | 67 | 0.0 | 0.0 | 0.00 | 0.00 | 0.00 | 93 | 1018.9 |
| 20260906063819 | 62 | 67 | 0.0 | 0.0 | 0.00 | 0.00 | 0.00 | 93 | 1018.9 |
| 20260906063331 | 62 | 67 | 0.0 | 0.0 | 0.00 | 0.00 | 0.00 | 93 | 1018.9 |
| 20260906062826 | 62 | 67 | 0.0 | 0.0 | 0.00 | 0.00 | 0.00 | 93 | 1018.8 |
| 20260906062320 | 62 | 67 | 0.0 | 0.0 | 0.00 | 0.00 | 0.00 | 93 | 1018.8 |
| 20260906061843 | 62 | 67 | 0.0 | 0.0 | 0.00 | 0.00 | 0.00 | 93 | 1018.8 |
| 20260906061318 | 62 | 67 | 0.0 | 0.0 | 0.00 | 0.00 | 0.00 | 93 | 1018.8 |
| 20260906060833 | 62 | 67 | 0.0 | 0.0 | 0.00 | 0.00 | 0.00 | 94 | 1018.7 |
| 20260906060326 | 62 | 67 | 0.0 | 0.0 | 0.00 | 0.00 | 0.00 | 94 | 1018.7 |
| 20260906055820 | 62 | 67 | 0.0 | 0.9 | 0.00 | 0.00 | 0.00 | 94 | 1018.5 |
| 20260906055334 | 62 | 67 | 0.0 | 0.9 | 0.00 | 0.00 | 0.00 | 93 | 1018.5 |
| 20260906054828 | 62 | 67 | 0.0 | 0.9 | 0.00 | 0.00 | 0.00 | 93 | 1018.5 |
| 20260906054343 | 62 | 67 | 0.0 | 0.9 | 0.00 | 0.00 | 0.00 | 93 | 1018.5 |
| 20260906053850 | 63 | 67 | 0.0 | 0.0 | 0.00 | 0.00 | 0.00 | 93 | 1018.4 |
| 20260906053326 | 63 | 67 | 0.0 | 0.0 | 0.00 | 0.00 | 0.00 | 93 | 1018.4 |
| 20260906052821 | 63 | 67 | 0.0 | 0.0 | 0.00 | 0.00 | 0.00 | 92 | 1018.2 |
| 20260906052345 | 63 | 67 | 0.0 | 0.0 | 0.00 | 0.00 | 0.00 | 92 | 1018.2 |
| 20260906051839 | 63 | 67 | 0.0 | 0.0 | 0.00 | 0.00 | 0.00 | 92 | 1018.1 |
| 20260906051324 | 63 | 67 | 0.0 | 0.0 | 0.00 | 0.00 | 0.00 | 92 | 1018.2 |
| 20260906050832 | 63 | 67 | 0.0 | 0.0 | 0.00 | 0.00 | 0.00 | 92 | 1018.2 |
| 20260906050327 | 63 | 67 | 0.0 | 0.0 | 0.00 | 0.00 | 0.00 | 93 | 1018.2 |
| 20260906045934 | 63 | 67 | 0.0 | 0.0 | 0.00 | 0.00 | 0.00 | 93 | 1018.2 |
| 20260906045348 | 63 | 67 | 0.0 | 0.0 | 0.00 | 0.00 | 0.00 | 93 | 1018.1 |
| 20260906044823 | 63 | 67 | 0.0 | 0.0 | 0.00 | 0.00 | 0.00 | 93 | 1018.1 |
| 20260906043359 | 63 | 68 | 0.0 | 1.7 | 0.00 | 0.00 | 0.00 | 93 | 1018.0 |
| 20260906042843 | 63 | 68 | 0.0 | 0.0 | 0.00 | 0.00 | 0.00 | 93 | 1018.0 |
| 20260906042320 | 63 | 68 | 0.0 | 0.0 | 0.00 | 0.00 | 0.00 | 93 | 1018.0 |
| 20260906040358 | 63 | 68 | 0.0 | 0.0 | 0.00 | 0.00 | 0.00 | 94 | 1017.9 |
| 20260906035823 | 63 | 68 | 0.0 | 0.0 | 0.00 | 0.00 | 0.00 | 94 | 1017.9 |
| 20260906034905 | 63 | 68 | 0.0 | 0.0 | 0.00 | 0.00 | 0.00 | 95 | 1018.0 |
| 20260906034321 | 63 | 68 | 0.0 | 0.0 | 0.00 | 0.00 | 0.00 | 95 | 1017.9 |
| 20260906032341 | 63 | 68 | 0.0 | 0.0 | 0.00 | 0.00 | 0.00 | 95 | 1017.8 |
| 20260906031820 | 63 | 68 | 0.0 | 0.0 | 0.00 | 0.00 | 0.00 | 95 | 1017.8 |
| 20260906030909 | 63 | 68 | 0.0 | 0.0 | 0.00 | 0.00 | 0.00 | 94 | 1017.7 |
| 20260906030339 | 63 | 68 | 0.0 | 0.0 | 0.00 | 0.00 | 0.00 | 94 | 1017.7 |
| 20260906025817 | 63 | 68 | 0.0 | 0.0 | 0.00 | 0.00 | 0.00 | 94 | 1017.7 |
| 20260906025413 | 64 | 68 | 0.0 | 0.0 | 0.00 | 0.00 | 0.00 | 94 | 1017.7 |
| 20260906024846 | 64 | 68 | 0.0 | 0.0 | 0.00 | 0.00 | 0.00 | 93 | 1017.7 |
| 20260906024319 | 64 | 68 | 0.0 | 0.0 | 0.00 | 0.00 | 0.00 | 93 | 1017.8 |
| 20260906023910 | 64 | 68 | 0.0 | 0.0 | 0.00 | 0.00 | 0.00 | 93 | 1017.7 |
| 20260906023347 | 64 | 68 | 0.0 | 0.0 | 0.00 | 0.00 | 0.00 | 92 | 1017.7 |
| 20260906022826 | 65 | 68 | 0.0 | 0.0 | 0.00 | 0.00 | 0.00 | 92 | 1017.6 |
| 20260906020902 | 66 | 68 | 0.0 | 0.0 | 0.00 | 0.00 | 0.00 | 91 | 1017.5 |
| 20260906020339 | 66 | 68 | 0.0 | 0.0 | 0.00 | 0.00 | 0.00 | 91 | 1017.4 |
| 20260906015409 | 66 | 68 | 0.0 | 0.0 | 0.00 | 0.00 | 0.00 | 90 | 1017.5 |
| 20260906014849 | 67 | 68 | 0.0 | 0.0 | 0.00 | 0.00 | 0.00 | 90 | 1017.5 |
| 20260906014428 | 67 | 68 | 0.0 | 0.0 | 0.00 | 0.00 | 0.00 | 89 | 1017.5 |
| 20260906013848 | 67 | 68 | 0.0 | 0.0 | 0.00 | 0.00 | 0.00 | 89 | 1017.4 |
| 20260906013322 | 68 | 68 | 0.0 | 0.0 | 0.00 | 0.00 | 0.00 | 88 | 1017.4 |
| 20260906010857 | 69 | 68 | 0.0 | 2.6 | 0.00 | 0.00 | 0.00 | 86 | 1017.5 |
| 20260906010317 | 69 | 68 | 0.0 | 2.6 | 0.00 | 0.00 | 0.00 | 85 | 1017.3 |
| 20260906005401 | 69 | 69 | 0.9 | 2.6 | 0.00 | 0.00 | 0.00 | 84 | 1017.3 |
| 20260906004843 | 69 | 69 | 0.9 | 1.7 | 0.00 | 0.00 | 0.00 | 84 | 1017.3 |
| 20260906004326 | 70 | 69 | 0.9 | 1.7 | 0.00 | 0.00 | 0.00 | 83 | 1017.2 |
| 20260906001858 | 71 | 63 | 0.0 | 3.5 | 0.00 | 0.00 | 0.00 | 81 | 1017.1 |
| 20260906001341 | 71 | 63 | 0.9 | 3.5 | 0.00 | 0.00 | 0.00 | 80 | 1017.0 |
| 20260906000818 | 72 | 63 | 0.0 | 3.5 | 0.00 | 0.00 | 0.00 | 80 | 1017.1 |
| 20260905235912 | 72 | 80 | 0.9 | 4.3 | 0.00 | 0.00 | 0.00 | 79 | 1017.0 |
| 20260905235356 | 72 | 47 | 0.9 | 5.2 | 0.00 | 0.00 | 0.00 | 78 | 1017.0 |
| 20260905234841 | 72 | 76 | 1.7 | 7.8 | 0.00 | 0.00 | 0.00 | 78 | 1017.1 |
| 20260905234414 | 72 | 79 | 0.9 | 7.8 | 0.00 | 0.00 | 0.00 | 77 | 1017.1 |
| 20260905233854 | 73 | 33 | 2.6 | 7.8 | 0.00 | 0.00 | 0.00 | 77 | 1017.1 |
| 20260905233332 | 73 | 91 | 2.6 | 7.8 | 0.00 | 0.00 | 0.00 | 77 | 1017.1 |
| 20260905230901 | 74 | 57 | 1.7 | 8.7 | 0.00 | 0.00 | 0.00 | 75 | 1017.5 |
| 20260905230336 | 74 | 343 | 2.6 | 8.7 | 0.00 | 0.00 | 0.00 | 74 | 1017.4 |
| 20260905225915 | 74 | 38 | 3.5 | 7.8 | 0.00 | 0.00 | 0.00 | 74 | 1017.3 |
| 20260905225347 | 75 | 95 | 0.9 | 7.0 | 0.00 | 0.00 | 0.00 | 74 | 1017.3 |
| 20260905224821 | 75 | 55 | 0.9 | 7.8 | 0.00 | 0.00 | 0.00 | 74 | 1017.3 |
| 20260905223407 | 75 | 24 | 2.6 | 7.0 | 0.00 | 0.00 | 0.00 | 73 | 1017.2 |
| 20260905222847 | 75 | 83 | 0.9 | 7.8 | 0.00 | 0.00 | 0.00 | 74 | 1017.2 |
| 20260905222319 | 75 | 55 | 1.7 | 7.8 | 0.00 | 0.00 | 0.00 | 74 | 1017.0 |
| 20260905221858 | 75 | 56 | 2.6 | 7.8 | 0.00 | 0.00 | 0.00 | 72 | 1017.0 |
| 20260905221317 | 76 | 69 | 2.6 | 8.7 | 0.00 | 0.00 | 0.00 | 71 | 1016.9 |
| 20260905220411 | 76 | 59 | 1.7 | 7.8 | 0.00 | 0.00 | 0.00 | 72 | 1017.0 |
| 20260905215850 | 76 | 31 | 1.7 | 8.7 | 0.00 | 0.00 | 0.00 | 71 | 1016.9 |
| 20260905215321 | 77 | 97 | 2.6 | 8.7 | 0.00 | 0.00 | 0.00 | 70 | 1017.0 |
| 20260905213902 | 77 | 84 | 3.5 | 9.6 | 0.00 | 0.00 | 0.00 | 69 | 1017.1 |
| 20260905213341 | 77 | 52 | 2.6 | 7.8 | 0.00 | 0.00 | 0.00 | 72 | 1017.1 |
| 20260905212819 | 77 | 360 | 1.7 | 7.8 | 0.00 | 0.00 | 0.00 | 71 | 1017.2 |
| 20260905211402 | 77 | 82 | 1.7 | 8.7 | 0.00 | 0.00 | 0.00 | 71 | 1017.2 |
| 20260905210841 | 77 | 42 | 3.5 | 8.7 | 0.00 | 0.00 | 0.00 | 71 | 1017.1 |
| 20260905210359 | 78 | 55 | 1.7 | 8.7 | 0.00 | 0.00 | 0.00 | 70 | 1017.2 |
| 20260905205839 | 78 | 26 | 3.5 | 8.7 | 0.00 | 0.00 | 0.00 | 67 | 1017.1 |
| 20260905205318 | 79 | 63 | 3.5 | 9.6 | 0.00 | 0.00 | 0.00 | 67 | 1017.0 |
| 20260905203403 | 78 | 44 | 3.5 | 7.8 | 0.00 | 0.00 | 0.00 | 70 | 1017.0 |
| 20260905202844 | 79 | 32 | 3.5 | 7.0 | 0.00 | 0.00 | 0.00 | 69 | 1016.9 |
| 20260905202321 | 79 | 69 | 1.7 | 8.7 | 0.00 | 0.00 | 0.00 | 71 | 1016.9 |
| 20260905201404 | 78 | 104 | 2.6 | 8.7 | 0.00 | 0.00 | 0.00 | 73 | 1016.8 |
| 20260905200841 | 78 | 9 | 3.5 | 8.7 | 0.00 | 0.00 | 0.00 | 75 | 1016.8 |
| 20260905200321 | 77 | 46 | 1.7 | 8.7 | 0.00 | 0.00 | 0.00 | 73 | 1016.9 |
| 20260905194856 | 78 | 68 | 1.7 | 7.8 | 0.00 | 0.00 | 0.00 | 76 | 1017.1 |
| 20260905194333 | 78 | 57 | 3.5 | 7.8 | 0.00 | 0.00 | 0.00 | 76 | 1017.1 |
| 20260905193817 | 78 | 117 | 1.7 | 9.6 | 0.00 | 0.00 | 0.00 | 77 | 1017.0 |
| 20260905192858 | 79 | 123 | 0.9 | 7.8 | 0.00 | 0.00 | 0.00 | 78 | 1017.1 |
| 20260905192340 | 79 | 63 | 3.5 | 7.8 | 0.00 | 0.00 | 0.00 | 77 | 1017.2 |
| 20260905191816 | 79 | 78 | 1.7 | 5.2 | 0.00 | 0.00 | 0.00 | 77 | 1017.0 |
| 20260905190358 | 79 | 45 | 3.5 | 7.8 | 0.00 | 0.00 | 0.00 | 77 | 1017.0 |
| 20260905185819 | 78 | 87 | 3.5 | 7.8 | 0.00 | 0.00 | 0.00 | 79 | 1017.0 |
| 20260905185410 | 78 | 47 | 0.9 | 11.3 | 0.00 | 0.00 | 0.00 | 79 | 1017.1 |
| 20260905184840 | 77 | 37 | 4.3 | 11.3 | 0.00 | 0.00 | 0.00 | 79 | 1017.2 |
| 20260905184415 | 77 | 57 | 1.7 | 7.8 | 0.00 | 0.00 | 0.00 | 80 | 1017.2 |
| 20260905183351 | 76 | 63 | 1.7 | 8.7 | 0.00 | 0.00 | 0.00 | 82 | 1017.3 |
| 20260905182825 | 75 | 86 | 2.6 | 7.0 | 0.00 | 0.00 | 0.00 | 84 | 1017.3 |
| 20260905182410 | 75 | 32 | 3.5 | 8.7 | 0.00 | 0.00 | 0.00 | 83 | 1017.3 |
| 20260905181850 | 75 | 28 | 3.5 | 8.7 | 0.00 | 0.00 | 0.00 | 83 | 1017.1 |
| 20260905181325 | 74 | 75 | 1.7 | 7.0 | 0.00 | 0.00 | 0.00 | 85 | 1017.2 |
| 20260905180407 | 73 | 38 | 1.7 | 7.8 | 0.00 | 0.00 | 0.00 | 85 | 1017.2 |
| 20260905175841 | 73 | 55 | 0.9 | 9.6 | 0.00 | 0.00 | 0.00 | 86 | 1017.2 |
| 20260905175414 | 73 | 36 | 3.5 | 9.6 | 0.00 | 0.00 | 0.00 | 86 | 1017.2 |
| 20260905174901 | 73 | 38 | 2.6 | 8.7 | 0.00 | 0.00 | 0.00 | 86 | 1017.1 |
| 20260905174319 | 73 | 82 | 1.7 | 5.2 | 0.00 | 0.00 | 0.00 | 86 | 1017.2 |
| 20260905171859 | 73 | 69 | 3.5 | 10.4 | 0.00 | 0.00 | 0.00 | 86 | 1017.3 |
| 20260905171338 | 73 | 88 | 0.9 | 7.8 | 0.00 | 0.00 | 0.00 | 87 | 1017.3 |
| 20260905170819 | 73 | 49 | 3.5 | 8.7 | 0.00 | 0.00 | 0.00 | 87 | 1017.4 |
| 20260905164910 | 72 | 31 | 2.6 | 10.4 | 0.00 | 0.00 | 0.00 | 88 | 1017.6 |
| 20260905164348 | 72 | 69 | 1.7 | 10.4 | 0.00 | 0.00 | 0.00 | 89 | 1017.5 |
| 20260905163826 | 72 | 75 | 4.3 | 10.4 | 0.00 | 0.00 | 0.00 | 89 | 1017.6 |
| 20260905162903 | 72 | 65 | 3.5 | 7.8 | 0.00 | 0.00 | 0.00 | 90 | 1017.4 |
| 20260905162341 | 71 | 82 | 2.6 | 7.8 | 0.00 | 0.00 | 0.00 | 90 | 1017.4 |
| 20260905161818 | 71 | 74 | 1.7 | 7.8 | 0.00 | 0.00 | 0.00 | 90 | 1017.4 |